Location: Unspecified
(36.1222°N, 0.0000°E)
Time: 02:18:50
(UTC+00:00)

Hubble Space Telescope - Visible Passes

Search period start: 23 October 2019 00:00
Search period end: 02 November 2019 00:00
Orbit: 536 x 540 km, 28.5° (Epoch: 21 October)

Date Brightness Start Highest point End Pass type
(mag) Time Alt. Az. Time Alt. Az. Time Alt. Az.
28 Oct 3.4 04:53:12 10° S 04:54:55 12° SSE 04:56:39 10° SE visible
29 Oct 3.2 04:42:03 11° SSW 04:44:14 15° SSE 04:46:34 10° SE visible
30 Oct 2.9 04:32:22 15° S 04:33:33 17° SSE 04:36:17 10° ESE visible
31 Oct 2.7 04:22:36 19° S 04:22:53 20° SSE 04:25:53 10° ESE visible
01 Nov 2.7 04:12:47 21° SSE 04:12:47 21° SSE 04:15:25 10° ESE visible
01 Nov 2.3 05:49:22 10° WSW 05:52:56 28° S 05:56:27 10° ESE visible
